TimeEDT,TemperatureF,Dew PointF,Humidity,Sea Level PressureIn,VisibilityMPH,Wind Direction,Wind SpeedMPH,Gust SpeedMPH,PrecipitationIn,Events,Conditions,WindDirDegrees,DateUTC
12:54 AM,52.0,51.1,97,30.24,4.0,Calm,Calm,-,N/A,,Clear,0,2008-10-05 04:54:00
1:11 AM,51.8,51.8,100,30.28,2.0,Calm,Calm,-,N/A,,Clear,0,2008-10-05 05:11:00
1:23 AM,51.8,50.0,94,30.28,3.0,Calm,Calm,-,N/A,,Clear,0,2008-10-05 05:23:00
1:28 AM,50.0,50.0,100,30.28,1.8,Calm,Calm,-,N/A,,Clear,0,2008-10-05 05:28:00
1:41 AM,50.0,50.0,100,30.28,0.8,Calm,Calm,-,N/A,,Clear,0,2008-10-05 05:41:00
1:50 AM,50.0,50.0,100,30.29,1.8,Calm,Calm,-,N/A,,Clear,0,2008-10-05 05:50:00
1:54 AM,50.0,50.0,100,30.25,3.0,Calm,Calm,-,N/A,,Clear,0,2008-10-05 05:54:00
2:07 AM,50.0,48.2,94,30.28,1.5,Calm,Calm,-,N/A,,Clear,0,2008-10-05 06:07:00
2:10 AM,50.0,48.2,94,30.28,0.8,Calm,Calm,-,N/A,,Clear,0,2008-10-05 06:10:00
2:24 AM,50.0,48.2,94,30.28,1.5,Calm,Calm,-,N/A,,Clear,0,2008-10-05 06:24:00
2:30 AM,50.0,48.2,94,30.28,3.0,Calm,Calm,-,N/A,,Clear,0,2008-10-05 06:30:00
2:54 AM,48.0,46.9,96,30.25,4.0,Calm,Calm,-,N/A,,Clear,0,2008-10-05 06:54:00
3:02 AM,48.2,46.4,93,30.29,1.8,Calm,Calm,-,N/A,,Clear,0,2008-10-05 07:02:00
3:11 AM,48.2,46.4,93,30.29,3.0,Calm,Calm,-,N/A,,Clear,0,2008-10-05 07:11:00
3:20 AM,48.2,48.2,100,30.29,2.5,Calm,Calm,-,N/A,,Clear,0,2008-10-05 07:20:00
3:29 AM,48.2,46.4,93,30.28,5.0,NNW,4.6,-,N/A,,Partly Cloudy,330,2008-10-05 07:29:00
3:51 AM,48.2,48.2,100,30.28,2.5,Calm,Calm,-,N/A,,Scattered Clouds,0,2008-10-05 07:51:00
3:54 AM,48.0,46.9,96,30.24,3.0,Calm,Calm,-,N/A,,Scattered Clouds,0,2008-10-05 07:54:00
4:08 AM,46.4,46.4,100,30.28,1.8,Calm,Calm,-,N/A,,Partly Cloudy,0,2008-10-05 08:08:00
4:14 AM,46.4,46.4,100,30.28,1.0,South,3.5,-,N/A,,Mist,190,2008-10-05 08:14:00
4:19 AM,46.4,46.4,100,30.28,0.5,South,3.5,-,N/A,Fog,Fog,190,2008-10-05 08:19:00
4:23 AM,46.4,46.4,100,30.28,0.2,SSW,3.5,-,N/A,Fog,Fog,200,2008-10-05 08:23:00
4:32 AM,46.4,46.4,100,30.28,0.2,Calm,Calm,-,N/A,Fog,Fog,0,2008-10-05 08:32:00
4:54 AM,46.9,46.9,100,30.25,0.8,Calm,Calm,-,N/A,,Mostly Cloudy,0,2008-10-05 08:54:00
4:57 AM,46.4,46.4,100,30.29,1.8,Calm,Calm,-,N/A,,Mostly Cloudy,0,2008-10-05 08:57:00
4:59 AM,46.4,46.4,100,30.29,3.0,Calm,Calm,-,N/A,,Mostly Cloudy,0,2008-10-05 08:59:00
5:05 AM,46.4,46.4,100,30.29,4.0,Calm,Calm,-,N/A,,Scattered Clouds,0,2008-10-05 09:05:00
5:33 AM,46.4,44.6,93,30.30,3.0,Calm,Calm,-,N/A,,Mostly Cloudy,0,2008-10-05 09:33:00
5:40 AM,44.6,44.6,100,30.30,2.5,Calm,Calm,-,N/A,,Mostly Cloudy,0,2008-10-05 09:40:00
5:51 AM,46.4,46.4,100,30.30,1.0,Calm,Calm,-,N/A,,Overcast,0,2008-10-05 09:51:00
5:54 AM,46.0,46.0,100,30.27,0.5,Calm,Calm,-,N/A,Fog,Fog,0,2008-10-05 09:54:00
6:09 AM,46.4,46.4,100,30.31,0.5,Calm,Calm,-,N/A,Fog,Fog,0,2008-10-05 10:09:00
6:28 AM,46.4,46.4,100,30.32,0.2,Calm,Calm,-,N/A,Fog,Fog,0,2008-10-05 10:28:00
6:54 AM,46.0,46.0,100,30.29,0.2,Calm,Calm,-,N/A,Fog,Fog,0,2008-10-05 10:54:00
7:42 AM,48.2,48.2,100,30.33,0.2,Calm,Calm,-,N/A,Fog,Fog,0,2008-10-05 11:42:00
7:54 AM,48.0,48.0,100,30.31,0.2,Calm,Calm,-,N/A,Fog,Fog,0,2008-10-05 11:54:00
8:54 AM,48.9,48.9,100,30.32,0.2,Calm,Calm,-,N/A,Fog,Fog,0,2008-10-05 12:54:00
9:14 AM,48.2,48.2,100,30.35,0.2,Calm,Calm,-,N/A,Fog,Fog,0,2008-10-05 13:14:00
9:22 AM,50.0,50.0,100,30.35,1.0,Calm,Calm,-,N/A,,Overcast,0,2008-10-05 13:22:00
9:33 AM,50.0,50.0,100,30.35,0.2,Calm,Calm,-,N/A,Fog,Fog,0,2008-10-05 13:33:00
9:49 AM,51.8,51.8,100,30.35,0.5,Calm,Calm,-,N/A,Fog,Fog,0,2008-10-05 13:49:00
9:54 AM,51.1,51.1,100,30.33,0.8,Calm,Calm,-,N/A,,Mostly Cloudy,0,2008-10-05 13:54:00
9:58 AM,51.8,51.8,100,30.35,5.0,Calm,Calm,-,N/A,,Mostly Cloudy,0,2008-10-05 13:58:00
10:05 AM,51.8,51.8,100,30.35,5.0,Calm,Calm,-,N/A,,Clear,0,2008-10-05 14:05:00
10:54 AM,63.0,53.1,70,30.31,10.0,Calm,Calm,-,N/A,,Clear,0,2008-10-05 14:54:00
11:54 AM,68.0,54.0,61,30.30,10.0,Calm,Calm,-,N/A,,Clear,0,2008-10-05 15:54:00
12:54 PM,73.0,50.0,44,30.27,10.0,NNW,8.1,-,N/A,,Clear,340,2008-10-05 16:54:00
1:54 PM,73.9,48.0,40,30.24,10.0,Variable,6.9,-,N/A,,Clear,0,2008-10-05 17:54:00
2:54 PM,75.9,44.1,32,30.22,10.0,Calm,Calm,-,N/A,,Clear,0,2008-10-05 18:54:00
3:54 PM,75.0,44.1,33,30.21,10.0,Calm,Calm,-,N/A,,Clear,0,2008-10-05 19:54:00
4:54 PM,75.0,43.0,32,30.20,10.0,SSW,5.8,-,N/A,,Clear,210,2008-10-05 20:54:00
5:54 PM,73.0,51.1,46,30.20,10.0,ESE,6.9,-,N/A,,Clear,120,2008-10-05 21:54:00
6:54 PM,69.1,54.0,58,30.22,10.0,Calm,Calm,-,N/A,,Clear,0,2008-10-05 22:54:00
7:54 PM,64.0,54.0,70,30.23,10.0,Calm,Calm,-,N/A,,Clear,0,2008-10-05 23:54:00
8:54 PM,61.0,54.0,78,30.25,10.0,Calm,Calm,-,N/A,,Clear,0,2008-10-06 00:54:00
9:54 PM,57.9,55.0,90,30.27,8.0,Calm,Calm,-,N/A,,Clear,0,2008-10-06 01:54:00
10:54 PM,57.0,54.0,89,30.27,7.0,Calm,Calm,-,N/A,,Clear,0,2008-10-06 02:54:00
11:54 PM,54.0,53.1,97,30.28,5.0,Calm,Calm,-,N/A,,Clear,0,2008-10-06 03:54:00